Showing default

LES 8, 8746

Orbit data source: Space-Track

LES 8, 8746 is a payload satellite owned by SAMSO (US) in GEO that was launched on Mon, 15 Mar 1976 UTC via a TITAN IIIC launch vehicle from the Air Force Eastern Test Range (AFETR). Payloads include a variety of satellites, spacecraft, and rockets equipped with specific instruments for various scientific and technological missions. These include communications satellites like Starlink; space stations such as the ISS; scientific satellites like the Hubble; Earth observation satellites from companies like Planet Labs, Umbra, and HawkEye 360; GPS; miniature CubeSats for education and research; and military/defense satellites.

Loading next visibility...
LES 8 details
Identifier
8746, 1976-023A
Orbit
GEO
Last TLE update1 day ago
Origin
Flag of USSAMSO (US)
ManufacturerMIT-LL
MissionNon-operational Defense Com/Tech
Bus & MotorLES, Unknown motor
Mass420 kg wet, 366 kg dry
Launch date (UTC)
1976-03-15 (49 years ago)
Launch vehicle
TITAN IIIC
Launch site
Air Force Eastern Test Range (AFETR)
Object type
Payload
Rocket body
Debris
Shape & HBRBox + Cyl + 1 Ant, 4 m
Radar Cross Section4.285 m², Large (>1 m²)

Expand to show TLE details & history

TLE from 1 day ago
0 LES 8
1 08746U 76023A   25035.01969049 -.00000102  00000-0  00000-0 0  9990
2 08746  21.4658  43.3898 0032870 143.7822 207.7801  1.00277746124685
Epoch: 2025-02-04T00:28Z
Definitive object data (Epoch: 2025-02-04T00:28:21.258Z)
Latitude-3.15754°
Longitude-106.15442°
Altitude35,907.406 km
Speed3.066 km/s
True Right ascension02h 21m 27s
True Declination-3° 09' 16"
Sunlit
Object was in daylight at TLE epoch
Visualization TLE readout
Latitude21.47977°
Longitude-7.17701°
Altitude35,700.344 km
Speed3.081 km/s
Apparent Right ascension08h 56m 25s
Apparent Declination18° 17' 13"
Sunlit
Object is in full shadow
Visualization observer readout
Local Sidereal Time09:03:58
Azimuth184.858° SSW
Elevation68.309°
Doppler factor1
Orbital elements
Apogee altitude35,924.377 km
Perigee altitude35,647.192 km
Semi-major axis42,163.922 km
Eccentricity0.003287
Inclination21.4658°
RAAN43.3898°
Arg. of periapsis143.7822°
True anomaly207.60518°
Mean anomaly207.7801°
Eccentric anomaly207.69258°
Mean motion0.25069 °/min
BSTARUnknown
Orbital period1436.05 mins
Loading historical data...
8746 neighbors
Authenticating...
Loading maneuver chart data...
Loading historical data...
Loading historical data...
Loading historical data...
Loading historical data...
Loading historical data...
Loading historical data...
Loading historical data...

LES 8 Visibility forecast

Observer location: undefined°, undefined

Span
Click to sort rows by Start time (UTC) header in descending order
Start Az.
Max El. time (UTC)
Max El. Az.
Max El.
End time (UTC)
End Az.
1440 mins2025-02-05 07:01:42.621Z184.854° SSW2025-02-06 07:00:42.621Z184.618° SSW42.895°2025-02-06 07:01:42.621Z184.56° SSW
|